Zurück zum Katalog

COSMOS 2251 DEB

AktivLEO
NORAD 34626·DEBRIS·🇷🇺 Russia

Gestartet Jun 16, 1993 von Plesetsk Cosmodrome

Loading…

Nächste Überflüge (nächste 24 Stunden)

TLE

AktuellSource: Space-Track

Epoche: Sep 14, 2026, 03:23 UTC

1 34626U 93036WX  26257.14132742  .00002774  00000-0  41640-3 0  9996
2 34626  74.0462 147.1026 0028140 170.5776 339.9210 14.74807601932015

Verfolge COSMOS 2251 DEB in Echtzeit mit AllMySat

Download on the App Store